Delavan, Wisconsin, United States (53115)
Lat: 42.63N, Lon: 88.64W
Wx Zone: WIZ070
Local Info
Past Weather Observations for Today

NOTE: This archive is for the closest National Weather Service station to Delavan. Information may differ from the station used for current weather conditions.

Click here for Long-term Archive

Time Weather Temperature Dewpoint Humidity Pressure Winds Precip Visibility
16:55
Overcast
23°F / -5°C 18°F / -8°C 80% 29.71 in
(1006 mb)
NW 15 mph
(NW 24 kph)
- 10SM
16:35
Overcast
Light Snow
25°F / -4°C 18°F / -8°C 74% 29.71 in
(1006 mb)
NW 10.4 mph
(NW 17 kph)
- 4SM
16:15
Overcast
25°F / -4°C 18°F / -8°C 74% 29.71 in
(1006 mb)
NW 13.8 mph
(NW 22 kph)
- 10SM
15:55
Overcast
25°F / -4°C 18°F / -8°C 74% 29.71 in
(1006 mb)
NW 13.8 mph
(NW 22 kph)
- 10SM
15:35
Overcast
25°F / -4°C 19°F / -7°C 80% 29.71 in
(1006 mb)
NW 12.7 mph
(NW 20 kph)
- 10SM
15:15
Overcast
25°F / -4°C 18°F / -8°C 74% 29.68 in
(1005 mb)
NW 13.8 mph
(NW 22 kph)
- 10SM
14:55
Overcast
25°F / -4°C 18°F / -8°C 74% 29.68 in
(1005 mb)
NW 11.5 mph
(NW 19 kph)
- 10SM
14:35
Overcast
25°F / -4°C 19°F / -7°C 80% 29.68 in
(1005 mb)
WNW 11.5 mph
(WNW 19 kph)
- 10SM
14:15
Overcast
25°F / -4°C 18°F / -8°C 74% 29.68 in
(1005 mb)
NW 15 mph
(NW 24 kph)
- 10SM
13:55
Overcast
25°F / -4°C 18°F / -8°C 74% 29.68 in
(1005 mb)
NW 11.5 mph
(NW 19 kph)
- 10SM
13:35
Overcast
Light Snow
25°F / -4°C 19°F / -7°C 80% 29.68 in
(1005 mb)
WNW 9.2 mph
(WNW 15 kph)
- 1 3/4SM
13:15
Overcast
25°F / -4°C 18°F / -8°C 74% 29.65 in
(1004 mb)
NW 10.4 mph
(NW 17 kph)
- 10SM
12:55
Overcast
25°F / -4°C 18°F / -8°C 74% 29.68 in
(1005 mb)
NW 12.7 mph
(NW 20 kph)
- 10SM
12:35
Overcast
25°F / -4°C 19°F / -7°C 80% 29.65 in
(1004 mb)
NW 13.8 mph
(NW 22 kph)
- 10SM
12:15
Overcast
25°F / -4°C 18°F / -8°C 74% 29.68 in
(1005 mb)
NW 13.8 mph
(NW 22 kph)
- 10SM
11:55
Overcast
25°F / -4°C 19°F / -7°C 80% 29.68 in
(1005 mb)
NW 12.7 mph
(NW 20 kph)
- 10SM
11:35
Overcast
25°F / -4°C 19°F / -7°C 80% 29.68 in
(1005 mb)
NW 12.7 mph
(NW 20 kph)
- 10SM
11:15
Overcast
25°F / -4°C 19°F / -7°C 80% 29.68 in
(1005 mb)
NW 12.7 mph
(NW 20 kph)
- 10SM
10:55
Overcast
25°F / -4°C 19°F / -7°C 80% 29.68 in
(1005 mb)
NW 12.7 mph
(NW 20 kph)
- 10SM
10:35
Overcast
27°F / -3°C 21°F / -6°C 80% 29.65 in
(1004 mb)
NNW 11.5 mph
(NNW 19 kph)
- 10SM
10:15
Overcast
27°F / -3°C 21°F / -6°C 80% 29.65 in
(1004 mb)
NW 12.7 mph
(NW 20 kph)
- 10SM
09:55
Overcast
27°F / -3°C 23°F / -5°C 86% 29.65 in
(1004 mb)
NNW 10.4 mph
(NNW 17 kph)
- 10SM
09:35
Overcast
27°F / -3°C 25°F / -4°C 93% 29.65 in
(1004 mb)
NW 11.5 mph
(NW 19 kph)
- 10SM
09:15
Overcast
27°F / -3°C 25°F / -4°C 93% 29.62 in
(1003 mb)
NW 9.2 mph
(NW 15 kph)
- 10SM
08:55
Overcast
28°F / -2°C 27°F / -3°C 93% 29.62 in
(1003 mb)
NW 8.1 mph
(NW 13 kph)
- 10SM
08:35
Overcast
27°F / -3°C 27°F / -3°C 100% 29.62 in
(1003 mb)
W 8.1 mph
(W 13 kph)
- 7SM
08:15
Overcast
27°F / -3°C 27°F / -3°C 100% 29.62 in
(1003 mb)
W 8.1 mph
(W 13 kph)
- 7SM
07:55
Overcast
27°F / -3°C 27°F / -3°C 100% 29.62 in
(1003 mb)
W 9.2 mph
(W 15 kph)
- 7SM
07:35
Overcast
28°F / -2°C 27°F / -3°C 93% 29.62 in
(1003 mb)
SSW 6.9 mph
(SSW 11 kph)
- 10SM
07:15
Overcast
Fog And Mist
28°F / -2°C 27°F / -3°C 93% 29.62 in
(1003 mb)
W 4.6 mph
(W 7 kph)
- 2 1/2SM
06:55
Overcast
28°F / -2°C 27°F / -3°C 93% 29.62 in
(1003 mb)
W 5.8 mph
(W 9 kph)
- 7SM
06:35
Overcast
Fog And Mist
28°F / -2°C 27°F / -3°C 93% 29.59 in
(1002 mb)
SSW 6.9 mph
(SSW 11 kph)
- 3SM
06:15
Overcast
30°F / -1°C 27°F / -3°C 86% 29.59 in
(1002 mb)
W 6.9 mph
(W 11 kph)
- 7SM
05:55
Overcast
30°F / -1°C 27°F / -3°C 86% 29.59 in
(1002 mb)
W 6.9 mph
(W 11 kph)
- 10SM
05:35
Overcast
30°F / -1°C 28°F / -2°C 93% 29.59 in
(1002 mb)
W 10.4 mph
(W 17 kph)
- 10SM
05:15
Overcast
30°F / -1°C 28°F / -2°C 93% 29.59 in
(1002 mb)
SSW 9.2 mph
(SSW 15 kph)
- 7SM
04:55
Overcast
30°F / -1°C 30°F / -1°C 100% 29.59 in
(1002 mb)
SSW 6.9 mph
(SSW 11 kph)
- 7SM
04:35
Overcast
Light Snow
30°F / -1°C 28°F / -2°C 93% 29.59 in
(1002 mb)
SW 5.8 mph
(SW 9 kph)
- 3SM
04:15
Overcast
30°F / -1°C 28°F / -2°C 93% 29.59 in
(1002 mb)
SW 5.8 mph
(SW 9 kph)
- 7SM
03:55
Overcast
30°F / -1°C 28°F / -2°C 93% 29.59 in
(1002 mb)
SW 9.2 mph
(SW 15 kph)
- 10SM
03:35
Overcast
30°F / -1°C 28°F / -2°C 93% 29.59 in
(1002 mb)
SW 6.9 mph
(SW 11 kph)
- 10SM
03:15
Overcast
30°F / -1°C 27°F / -3°C 86% 29.59 in
(1002 mb)
SW 8.1 mph
(SW 13 kph)
- 10SM
02:55
Overcast
30°F / -1°C 27°F / -3°C 86% 29.59 in
(1002 mb)
SW 6.9 mph
(SW 11 kph)
- 10SM
02:35
Overcast
30°F / -1°C 27°F / -3°C 86% 29.59 in
(1002 mb)
SW 8.1 mph
(SW 13 kph)
- 10SM
02:15
Overcast
28°F / -2°C 27°F / -3°C 93% 29.59 in
(1002 mb)
SW 5.8 mph
(SW 9 kph)
- 10SM
01:55
Mostly Cloudy
28°F / -2°C 27°F / -3°C 93% 29.62 in
(1003 mb)
SW 4.6 mph
(SW 7 kph)
- 10SM
01:35
Partly Cloudy
28°F / -2°C 27°F / -3°C 93% 29.62 in
(1003 mb)
SW 6.9 mph
(SW 11 kph)
- 10SM
01:15
Clear
28°F / -2°C 27°F / -3°C 93% 29.62 in
(1003 mb)
SW 8.1 mph
(SW 13 kph)
- 10SM
00:55
Clear
28°F / -2°C 27°F / -3°C 93% 29.62 in
(1003 mb)
SW 8.1 mph
(SW 13 kph)
- 10SM
00:35
Clear
28°F / -2°C 25°F / -4°C 86% 29.62 in
(1003 mb)
SW 6.9 mph
(SW 11 kph)
- 10SM
00:15
Clear
30°F / -1°C 27°F / -3°C 86% 29.65 in
(1004 mb)
SW 6.9 mph
(SW 11 kph)
- 10SM
Time Weather Temperature Dewpoint Humidity Pressure Winds Precip Visibility


Weather for websites

WeatherForYou.com, LLC is not responsible for any damages or problems caused by this service. Current weather conditions are obtained from the closest station including government and personal stations which may have varying degrees of accuracy. Weather forecasts are derived from the NOAA NDFD. Like all things, this site belongs to Jesus Christ... He just trusts us to maintain it. If you have any questions or comments email webmaster@weatherforyou.com

Copyright © 2016, WeatherForYou.com LLC. All rights reserved.